Annapolis Naval Academy, MD

6:22 PM EDT on June 23, 2017 (GMT -0400)
Annapolis Naval Academy

Weather History for KNAK - November, 2013

Change the Weather History Date:

Monday, November 25, 2013

  Actual Average (KBWI) Record (KBWI)
Temperature  
Mean Temperature 28 °F -  
Max Temperature 35 °F 52 °F 75 °F (1973)
Min Temperature 21 °F 32 °F 18 °F (1950)
Degree Days  
Heating Degree Days 37    
Moisture  
Dew Point 11 °F    
Average Humidity 47    
Maximum Humidity 58    
Minimum Humidity 35    
Precipitation  
Precipitation 0.00 in - - ()
Sea Level Pressure  
Sea Level Pressure 30.49 in    
Wind  
Wind Speed 6 mph (WSW)    
Max Wind Speed 14 mph    
Max Gust Speed -    
Visibility 10 miles    
Events      
Averages and records for this station are not official NWS values.
T = Trace of Precipitation, MM = Missing Value Source: NWS Daily Summary

Daily Weather History Graph

Daily Weather History Graph

Search for Another Location

Airport or City:

Trip Planner

Search our weather history database for the weather conditions in past years. The results will help you decide how hot, cold, wet, or windy it might be!

Date:

Astronomy

Nov. 25, 2013 Rise Set
Actual Time 6:59 AM EST 4:45 PM EST
Civil Twilight 6:30 AM EST 5:15 PM EST
Nautical Twilight 5:57 AM EST 5:47 PM EST
Astronomical Twilight 5:25 AM EST 6:19 PM EST
Moon No Moon Rise 12:17 PM EST (11/25)
Length of Visible Light 10h 44m
Length of Day
9h 46m
Waning Gibbous, 51% of the Moon is Illuminated
Nov 25
Waning Gibbous
Nov 25
Last Quarter
Dec 2
New
Dec 9
First Quarter
Dec 17
Full

Hourly Weather History & Observations

Time (EST) Temp. Windchill Dew Point Humidity Pressure Visibility Wind Dir Wind Speed Gust Speed Precip Events Conditions
12:54 AM 25.0 °F 17.1 °F 10.0 °F 53% 30.51 in 10.0 mi West 6.9 mph - N/A   Clear
1:54 AM 24.1 °F 16.0 °F 10.0 °F 55% 30.52 in 10.0 mi West 6.9 mph - N/A   Clear
2:54 AM 25.0 °F 17.1 °F 12.0 °F 58% 30.51 in 10.0 mi NW 6.9 mph - N/A   Clear
3:54 AM 23.0 °F 17.0 °F 9.0 °F 55% 30.52 in 10.0 mi WNW 4.6 mph - N/A   Clear
4:54 AM 23.0 °F 17.0 °F 10.0 °F 58% 30.54 in 10.0 mi WNW 4.6 mph - N/A   Clear
5:54 AM 21.9 °F 17.2 °F 9.0 °F 58% 30.55 in 10.0 mi West 3.5 mph - N/A   Clear
6:54 AM 21.9 °F 15.7 °F 8.1 °F 55% 30.57 in 10.0 mi West 4.6 mph - N/A   Clear
7:54 AM 24.1 °F 17.0 °F 10.0 °F 55% 30.58 in 10.0 mi WNW 5.8 mph - N/A   Clear
8:54 AM 26.1 °F 19.4 °F 9.0 °F 49% 30.59 in 10.0 mi West 5.8 mph - N/A   Clear
9:54 AM 28.0 °F 21.7 °F 9.0 °F 45% 30.59 in 10.0 mi WNW 5.8 mph - N/A   Clear
10:54 AM 30.0 °F 24.1 °F 12.0 °F 47% 30.56 in 10.0 mi NNW 5.8 mph - N/A   Clear
11:54 AM 32.0 °F 28.7 °F 10.0 °F 40% 30.54 in 10.0 mi WNW 3.5 mph - N/A   Clear
12:54 PM 35.1 °F 30.1 °F 10.0 °F 35% 30.49 in 10.0 mi Variable 5.8 mph - N/A   Clear
1:54 PM 34.0 °F 24.6 °F 15.1 °F 46% 30.47 in 10.0 mi SE 13.8 mph - N/A   Clear
2:54 PM 34.0 °F 25.0 °F 15.1 °F 46% 30.46 in 10.0 mi SSE 12.7 mph - N/A   Clear
3:54 PM 35.1 °F 27.9 °F 12.9 °F 40% 30.45 in 10.0 mi South 9.2 mph - N/A   Clear
4:54 PM 34.0 °F 28.0 °F 9.0 °F 35% 30.43 in 10.0 mi South 6.9 mph - N/A   Clear
5:54 PM 34.0 °F 28.8 °F 9.0 °F 35% 30.43 in 10.0 mi SSW 5.8 mph - N/A   Clear
6:54 PM 34.0 °F 28.0 °F 14.0 °F 44% 30.41 in 10.0 mi South 6.9 mph - N/A   Clear
7:54 PM 34.0 °F 27.2 °F 12.9 °F 42% 30.43 in 10.0 mi SSW 8.1 mph - N/A   Clear
8:54 PM 33.1 °F 26.9 °F 12.0 °F 42% 30.40 in 10.0 mi South 6.9 mph - N/A   Clear
9:54 PM 33.1 °F 26.9 °F 12.0 °F 42% 30.39 in 10.0 mi SSW 6.9 mph - N/A   Clear
10:54 PM 34.0 °F 29.8 °F 12.0 °F 40% 30.38 in 10.0 mi South 4.6 mph - N/A   Overcast
11:54 PM 34.0 °F 29.8 °F 12.9 °F 42% 30.38 in 10.0 mi South 4.6 mph - N/A   Scattered Clouds